Regional Weather Roundup
Issued by NWS

Home | Current Version | Previous Version | Graphics & Text | Print | Product List | Glossary Off
Versions: 1 2 3 4 5 6 7 8 9 10 11 12 13 14 15 16 17 18 19 20 21 22 23 24 25 26 27 28 29 30 31 32 33 34 35 36 37 38 39 40 41 42 43 44 45 46 47 48 49 50

000
ASUS43 KMKX 231400
RWRWI

WISCONSIN REGIONAL WEATHER ROUNDUP
NATIONAL WEATHER SERVICE MILWAUKEE/SULLIVAN WI
900 AM CDT WED APR 23 2014

NOTE: "FAIR" INDICATES FEW OR NO CLOUDS BELOW 12,000 FEET WITH NO
SIGNIFICANT WEATHER AND/OR OBSTRUCTIONS TO VISIBILITY.

WIZ001-002-006>008-014>016-023>028-231500-
NORTHWEST WISCONSIN

CITY           SKY/WX    TMP DP  RH WIND       PRES   REMARKS
SUPERIOR ARPT  CLOUDY    33  30  87 NE6       30.15S WCI  28
ASHLAND        PTSUNNY   40  28  62 NE3       30.16F
HAYWARD        CLOUDY    40  26  57 S10       30.13F WCI  33
SIREN          CLOUDY    41  28  58 S6        30.11S
RICE LAKE      CLOUDY    38  28  69 SE10      30.15S WCI  31
LADYSMITH      CLOUDY    38  29  69 SE6       30.16S WCI  34
EAU CLAIRE     NOT AVBL
MENOMONIE      CLOUDY    39  30  69 SE7       30.15R WCI  34
NEW RICHMOND   CLOUDY    43  27  53 SE9       30.11F
OSCEOLA        CLOUDY    44  28  54 SE9       30.13F
$$

WIZ003>005-009-010-017-018-231500-
NORTH CENTRAL WISCONSIN

CITY           SKY/WX    TMP DP  RH WIND       PRES   REMARKS
WOODRUFF       MOSUNNY   39  31  74 SE3       30.15S
RHINELANDER    MOSUNNY   37  26  64 E5        30.16F WCI  33
EAGLE RIVER    MOSUNNY   37  26  65 CALM      30.16R
LAND O LAKES   MOSUNNY   36  28  71 CALM      30.17S
PHILLIPS       CLOUDY    37  28  69 SE3       30.14S
TOMAHAWK       PTSUNNY   36  28  74 E3        30.15F
MEDFORD        PTSUNNY   38  28  67 SE6       30.15R WCI  33
MERRILL        PTSUNNY   37  30  75 CALM      30.15S
$$

WIZ029-030-035-036-043>047-231500-
CENTRAL WISCONSIN

CITY           SKY/WX    TMP DP  RH WIND       PRES   REMARKS
WAUSAU         PTSUNNY   40  27  59 E10       30.14F WCI  33
MOSINEE        SUNNY     39  28  65 E6        30.17R WCI  35
MARSHFIELD     PTSUNNY   41  27  57 SE10      30.15S
STEVENS POINT  PTSUNNY   37  25  62 E7        30.18R WCI  32
WAUPACA        PTSUNNY   41  27  56 E6        30.19R
WAUTOMA        NOT AVBL
WISC RAPIDS    PTSUNNY   42  26  53 E9        30.18S
CAMP DOUGLAS   NOT AVBL
$$

WIZ011>013-019>022-031-037>040-048>050-231500-
NORTHEAST WISCONSIN

CITY           SKY/WX    TMP DP  RH WIND       PRES   REMARKS
ANTIGO         MOSUNNY   35  29  78 NE5       30.17S WCI  31
STURGEON BAY   MOSUNNY   36  25  64 N7        30.19R WCI  30
GREEN BAY      MOSUNNY   39  27  62 NE7       30.19F WCI  34
MANITOWOC      NOT AVBL
APPLETON       MOSUNNY   37  27  65 NE7       30.19S WCI  32
CLINTONVILLE   MOSUNNY   37  28  70 NE6       30.19S WCI  33
OSHKOSH        MOSUNNY   39  26  59 NE8       30.18R WCI  33
$$

WIZ032>034-041-042-053>061-231500-
SOUTHWEST WISCONSIN

CITY           SKY/WX    TMP DP  RH WIND       PRES   REMARKS
LA CROSSE      PTSUNNY   46  27  47 S13       30.16S
SPARTA         PTSUNNY   42  27  53 SE8       30.18R
VIROQUA        FAIR      41  29  61 SE13      30.16R
BOSCOBEL       MOSUNNY   46  29  51 E8        30.19R
PRAIRIE DU CHI PTSUNNY   44  29  56 E8        30.16F
PLATTEVILLE    FAIR      41  31  69 SE7       30.18S
$$

WIZ056-057-062-063-064-067-068-231500-
SOUTH CENTRAL WISCONSIN

CITY           SKY/WX    TMP DP  RH WIND       PRES   REMARKS
BARABOO/DELLS  MOSUNNY   40  27  59 E6        30.16S
LONE ROCK      NOT AVBL
WATERTOWN      SUNNY     39  29  68 NE7       30.17S WCI  34
MADISON        PTSUNNY   43  27  53 NE8       30.17F
MIDDLETON      FAIR      43  28  56 SE7       30.17S
MONROE         SUNNY     40  30  65 E6        30.17R
JANESVILLE     SUNNY     43  28  56 E7        30.17R
$$

WIZ051-052-058>065-066-070>072-231500-
SOUTHEAST WISCONSIN

CITY           SKY/WX    TMP DP  RH WIND       PRES   REMARKS
MILWAUKEE      MOSUNNY   41  27  57 N10       30.19R
WAUKESHA       SUNNY     39  27  60 NE9       30.18S WCI  33
MILWAUKEE/TIMM SUNNY     41  27  56 NE5       30.19R
RACINE         SUNNY     41  29  62 NE10      30.20R
BURLINGTON     SUNNY     37  30  73 NE8       30.18R WCI  31
KENOSHA        SUNNY     42  28  57 NE8       30.18R
FOND DU LAC    MOSUNNY   40  27  59 N6        30.18R
SHEBOYGAN      MOSUNNY   41  28  60 NE9       30.18S
WEST BEND      MOSUNNY   37  27  65 NE3       30.18R
JUNEAU         SUNNY     40  26  59 NE6       30.19S
$$

LSZ147-162-231500-
LAKE SUPERIOR

STATION/POSITION TIME  TEMP    WIND        PRES    WAVE
                       AIR SEA DIR/SP/G            HT/PER
                 (UTC) (F)     (DEG/KT/KT) (MB)    (FT/S)
DEVILS ISLAND    1300   34     110/  6/  7 1022.5R
PORT WING        1300   30      10/  2/  3 1021.3
SAXON HARBOR     1300             CALM     1021.7R
$$

LMZ867-665-643>646-231500-
LAKE MICHIGAN

STATION/POSITION TIME  TEMP    WIND        PRES    WAVE
                       AIR SEA DIR/SP/G            HT/PER
                 (UTC) (F)     (DEG/KT/KT) (MB)    (FT/S)
NORTHPORT PIER   1300   33     310/  4/  8 1022.4R
SISTER BAY       1309   36     350/  8/  9   N/A
KEWAUNEE LAKESHO 1300   37     340/  6/  8 1022.6R
SHEBOYGAN LAKESH 1300   38     360/ 10/ 12 1022.8R
PORT WASHINGTON  1300   40      30/  5/  7 1022.4R
MILWAUKEE LAKESH 1300   37      20/ 12/ 15   N/A
KENOSHA   LAKESH 1300   38      20/ 14/ 16   N/A
$$

TC  - TEMPERATURE IN CELSIUS
VSB - VISIBILITY IN STATUTE MILES
WCI - WIND CHILL INDEX
HX  - HEAT INDEX




USA.gov is the U.S. government's official web portal to all federal, state and local government web resources and services.